User: anonymous   Login
Location: Unspecified
(0.0000°N, 0.0000°E)
Time: 14:34:41
(UTC+00:00)
Language:

OBJECT E - Orbit

View from above orbital plane
View from above orbital plane
View from above satellite
View from above satellite

Ground track
Ground track

The orbit data is extracted from the following two-line orbital elements,

1 41845U 16066E   17084.88423227 -.00000067 +00000-0 +00000-0 0  9991
2 41845 098.7818 098.5131 0367773 135.3419 227.8029 14.37711728019529
Epoch (UTC): 25 March 2017 21:13:17
Eccentricity: 0.0367773
inclination: 98.7818°
perigee height: 503 km
apogee height: 1029 km
right ascension of ascending node: 98.5131°
argument of perigee: 135.3419°
revolutions per day: 14.37711728
mean anomaly at epoch: 227.8029°
orbit number at epoch: 1952

The dashed part of the orbit path shows where the satellite is in the earth's shadow,  

DLR